• In Czech Republic
  • List of Countries
  • For 7 days
  • Water Temperature
  • Satellite Maps
  • Weather Map
  • Weather Widgets
  • user-avatar
    Login

    Hourly Weather Regina

    Today, 21 June, Thursday

    Time Temperature Precipitation Wind Pressure Humidity
    00:00 +19°C° 0 mm 2 mps 711 mmHg 55%
    01:00 +19°C° 0 mm 1 mps 711 mmHg 55%
    02:00 +19°C° 0 mm 1 mps 711 mmHg 56%
    03:00 +19°C° 0 mm 1 mps 711 mmHg 57%
    04:00 +19°C° 0 mm 1 mps 711 mmHg 59%
    05:00 +19°C° 0 mm 1 mps 711 mmHg 60%
    06:00 +21°C° 0 mm 1 mps 711 mmHg 56%
    07:00 +23°C° 0 mm 1 mps 711 mmHg 51%
    08:00 +24°C° 0 mm 1 mps 711 mmHg 47%
    09:00 +26°C° 0 mm 2 mps 711 mmHg 43%
    10:00 +27°C° 0 mm 2 mps 711 mmHg 40%
    11:00 +28°C° 0 mm 2 mps 711 mmHg 36%
    12:00 +28°C° 0 mm 2 mps 711 mmHg 37%
    13:00 +28°C° 0 mm 2 mps 710 mmHg 38%
    14:00 +28°C° 0 mm 3 mps 710 mmHg 39%
    15:00 +28°C° 0 mm 2 mps 710 mmHg 41%
    16:00 +27°C° 0 mm 2 mps 710 mmHg 43%
    17:00 +27°C° 0 mm 2 mps 709 mmHg 45%
    18:00 +26°C° 0 mm 2 mps 709 mmHg 50%
    19:00 +25°C° 0 mm 2 mps 709 mmHg 54%
    20:00 +23°C° 0 mm 2 mps 708 mmHg 58%
    21:00 +21°C° 0 mm 3 mps 708 mmHg 60%
    22:00 +20°C° 0 mm 3 mps 708 mmHg 62%
    23:00 +20°C° 0 mm 3 mps 708 mmHg 64%

    Tomorrow, 22 June, Friday

    Time Temperature Precipitation Wind Pressure Humidity
    00:00 +19°C° 0.1 mm 3 mps 707 mmHg 67%
    01:00 +19°C° 0.1 mm 3 mps 707 mmHg 70%
    02:00 +18°C° 0.1 mm 3 mps 707 mmHg 73%
    03:00 +18°C° 0.5 mm 3 mps 707 mmHg 76%
    04:00 +18°C° 0.5 mm 3 mps 707 mmHg 80%
    05:00 +18°C° 0.5 mm 3 mps 707 mmHg 83%
    06:00 +20°C° 0.2 mm 3 mps 707 mmHg 77%
    07:00 +21°C° 0.2 mm 3 mps 707 mmHg 71%
    08:00 +24°C° 0.2 mm 3 mps 706 mmHg 65%
    09:00 +26°C° 0.2 mm 4 mps 706 mmHg 59%
    10:00 +27°C° 0.2 mm 4 mps 706 mmHg 52%
    11:00 +29°C° 0.2 mm 5 mps 706 mmHg 46%
    12:00 +29°C° 0 mm 4 mps 706 mmHg 45%
    13:00 +30°C° 0 mm 4 mps 706 mmHg 43%
    14:00 +30°C° 0 mm 4 mps 705 mmHg 42%
    15:00 +30°C° 0 mm 4 mps 705 mmHg 44%
    16:00 +29°C° 0 mm 4 mps 705 mmHg 45%
    17:00 +29°C° 0 mm 4 mps 705 mmHg 47%
    18:00 +28°C° 0 mm 3 mps 704 mmHg 53%
    19:00 +26°C° 0 mm 3 mps 704 mmHg 59%
    20:00 +25°C° 0 mm 3 mps 704 mmHg 65%
    21:00 +22°C° 0.4 mm 3 mps 704 mmHg 70%
    22:00 +21°C° 0.4 mm 3 mps 703 mmHg 74%
    23:00 +20°C° 0.4 mm 3 mps 703 mmHg 79%

    Day after tomorrow, 23 June, Saturday

    Time Temperature Precipitation Wind Pressure Humidity
    00:00 +20°C° 0.5 mm 3 mps 703 mmHg 80%
    01:00 +19°C° 0.5 mm 2 mps 703 mmHg 82%
    02:00 +19°C° 0.5 mm 2 mps 703 mmHg 84%
    03:00 +19°C° 0 mm 2 mps 703 mmHg 84%
    04:00 +19°C° 0 mm 2 mps 703 mmHg 85%
    05:00 +19°C° 0 mm 2 mps 703 mmHg 86%
    06:00 +20°C° 0.1 mm 2 mps 703 mmHg 80%
    07:00 +22°C° 0.1 mm 3 mps 704 mmHg 75%
    08:00 +24°C° 0.1 mm 3 mps 704 mmHg 70%
    09:00 +26°C° 0.6 mm 3 mps 704 mmHg 64%
    10:00 +27°C° 0.6 mm 4 mps 704 mmHg 59%
    11:00 +28°C° 0.6 mm 5 mps 704 mmHg 54%
    12:00 +28°C° 1.1 mm 4 mps 705 mmHg 53%
    13:00 +29°C° 1.1 mm 4 mps 705 mmHg 53%
    14:00 +29°C° 1.1 mm 4 mps 705 mmHg 52%
    15:00 +29°C° 0.4 mm 4 mps 705 mmHg 54%
    16:00 +28°C° 0.4 mm 4 mps 705 mmHg 57%
    17:00 +28°C° 0.4 mm 4 mps 705 mmHg 59%
    18:00 +26°C° 0.9 mm 4 mps 705 mmHg 64%
    19:00 +25°C° 0.9 mm 5 mps 706 mmHg 69%
    20:00 +23°C° 0.9 mm 5 mps 706 mmHg 74%
    21:00 +22°C° 2.3 mm 4 mps 706 mmHg 78%
    22:00 +21°C° 2.3 mm 3 mps 706 mmHg 83%
    23:00 +20°C° 2.3 mm 2 mps 706 mmHg 87%

    24 June, Sunday

    Time Temperature Precipitation Wind Pressure Humidity
    00:00 +20°C° 0.4 mm 3 mps 706 mmHg 88%
    01:00 +19°C° 0.4 mm 3 mps 706 mmHg 89%
    02:00 +19°C° 0.4 mm 3 mps 706 mmHg 90%
    03:00 +19°C° 0.2 mm 3 mps 706 mmHg 91%
    04:00 +19°C° 0.2 mm 2 mps 707 mmHg 92%
    05:00 +19°C° 0.2 mm 2 mps 707 mmHg 92%
    06:00 +20°C° 0.1 mm 2 mps 707 mmHg 87%
    07:00 +22°C° 0.1 mm 3 mps 708 mmHg 82%
    08:00 +24°C° 0.1 mm 3 mps 708 mmHg 77%
    09:00 +25°C° 0.3 mm 3 mps 708 mmHg 71%
    10:00 +27°C° 0.3 mm 3 mps 708 mmHg 64%
    11:00 +28°C° 0.3 mm 3 mps 708 mmHg 57%
    12:00 +29°C° 0 mm 3 mps 708 mmHg 54%
    13:00 +30°C° 0 mm 3 mps 708 mmHg 51%
    14:00 +30°C° 0 mm 3 mps 708 mmHg 48%
    15:00 +30°C° 0 mm 3 mps 708 mmHg 50%
    16:00 +30°C° 0 mm 3 mps 708 mmHg 51%
    17:00 +30°C° 0 mm 3 mps 708 mmHg 52%
    18:00 +28°C° 0 mm 2 mps 708 mmHg 56%
    19:00 +27°C° 0 mm 2 mps 708 mmHg 61%
    20:00 +26°C° 0 mm 1 mps 708 mmHg 65%
    21:00 +25°C° 0 mm 1 mps 708 mmHg 66%
    22:00 +24°C° 0 mm 1 mps 708 mmHg 67%
    23:00 +23°C° 0 mm 1 mps 708 mmHg 68%

    25 June, Monday

    Time Temperature Precipitation Wind Pressure Humidity
    00:00 +23°C° 0 mm 2 mps 708 mmHg 69%
    01:00 +23°C° 0 mm 2 mps 708 mmHg 69%
    02:00 +21°C° 0 mm 2 mps 708 mmHg 69%
    03:00 +21°C° 0 mm 2 mps 708 mmHg 70%
    04:00 +21°C° 0 mm 2 mps 708 mmHg 71%
    05:00 +21°C° 0 mm 2 mps 708 mmHg 72%
    06:00 +24°C° 0 mm 3 mps 708 mmHg 66%
    07:00 +26°C° 0 mm 3 mps 708 mmHg 60%
    08:00 +28°C° 0 mm 3 mps 708 mmHg 54%
    09:00 +29°C° 0 mm 3 mps 708 mmHg 49%
    10:00 +31°C° 0 mm 3 mps 708 mmHg 44%
    11:00 +33°C° 0 mm 4 mps 708 mmHg 39%
    12:00 +33°C° 0 mm 4 mps 708 mmHg 37%
    13:00 +34°C° 0 mm 4 mps 708 mmHg 35%
    14:00 +35°C° 0 mm 5 mps 707 mmHg 34%
    15:00 +35°C° 0 mm 4 mps 707 mmHg 36%
    16:00 +34°C° 0 mm 4 mps 707 mmHg 38%
    17:00 +34°C° 0 mm 4 mps 707 mmHg 40%
    18:00 +32°C° 0 mm 4 mps 706 mmHg 46%
    19:00 +29°C° 0 mm 4 mps 706 mmHg 51%
    20:00 +27°C° 0 mm 4 mps 706 mmHg 56%
    21:00 +27°C° 0 mm 4 mps 705 mmHg 57%
    22:00 +26°C° 0 mm 4 mps 705 mmHg 58%
    23:00 +25°C° 0 mm 5 mps 705 mmHg 59%

    26 June, Tuesday

    Time Temperature Precipitation Wind Pressure Humidity
    00:00 +25°C° 0 mm 5 mps 705 mmHg 61%
    01:00 +23°C° 0 mm 5 mps 705 mmHg 63%
    02:00 +23°C° 0 mm 5 mps 705 mmHg 64%
    03:00 +22°C° 0 mm 4 mps 705 mmHg 66%
    04:00 +22°C° 0 mm 4 mps 705 mmHg 67%
    05:00 +21°C° 0 mm 3 mps 705 mmHg 68%
    06:00 +24°C° 0 mm 3 mps 705 mmHg 61%
    07:00 +25°C° 0 mm 3 mps 706 mmHg 55%
    08:00 +26°C° 0 mm 3 mps 706 mmHg 49%
    09:00 +27°C° 0.2 mm 3 mps 706 mmHg 45%
    10:00 +28°C° 0.2 mm 3 mps 706 mmHg 42%
    11:00 +29°C° 0.2 mm 3 mps 706 mmHg 39%
    12:00 +29°C° 0 mm 4 mps 706 mmHg 37%
    13:00 +30°C° 0 mm 5 mps 706 mmHg 35%
    14:00 +32°C° 0 mm 5 mps 706 mmHg 33%
    15:00 +30°C° 0 mm 5 mps 706 mmHg 34%
    16:00 +30°C° 0 mm 4 mps 705 mmHg 34%
    17:00 +30°C° 0 mm 4 mps 705 mmHg 35%
    18:00 +28°C° 0 mm 4 mps 705 mmHg 37%
    19:00 +26°C° 0 mm 5 mps 706 mmHg 39%
    20:00 +23°C° 0 mm 5 mps 706 mmHg 41%
    21:00 +21°C° 0 mm 6 mps 706 mmHg 47%
    22:00 +20°C° 0 mm 7 mps 707 mmHg 53%
    23:00 +17°C° 0 mm 7 mps 708 mmHg 60%
    Show more